"Time","Temp","Dewpoint","Humidity","Pressure","Direction","Speed","Gust","Precip","PrecipRate"
"00:04:59","72.2","70.4","94.2","30.08","221","0","0","0.00","0.00"
"00:09:57","72.2","70.5","94.6","30.08","221","0","0","0.00","0.00"
"00:14:58","72.1","70.5","94.6","30.08","221","0","0","0.00","0.00"
"00:19:58","72.1","70.6","95","30.08","221","0","0","0.00","0.00"
"00:24:57","72.1","70.6","95","30.08","221","0","0","0.00","0.00"
"00:29:57","72","70.5","95","30.08","221","0","0","0.00","0.00"
"00:34:56","72","70.5","95","30.08","221","0","0","0.00","0.00"
"00:39:59","72","70.5","95","30.08","221","0","0","0.00","0.00"
"00:44:56","72","70.5","95","30.08","221","0","0","0.00","0.00"
"00:49:56","72.1","70.6","95","30.08","221","0","0","0.00","0.00"
"00:54:56","72","70.5","95","30.08","221","0","0","0.00","0.00"
"00:59:57","71.9","70.4","95","30.08","221","0","0","0.00","0.00"
"01:04:57","71.9","70.4","95","30.08","221","0","0","0.00","0.00"
"01:09:59","71.8","70.3","95","30.08","221","0","0","0.00","0.00"
"01:14:55","71.8","70.3","95","30.08","221","0","0","0.00","0.00"
"01:19:57","71.7","70.2","95","30.08","221","0","0","0.00","0.00"
"01:24:59","71.7","70.2","95","30.08","221","0","0","0.00","0.00"
"01:29:56","71.7","70.2","95","30.08","221","0","0","0.00","0.00"
"01:34:56","71.6","70.1","95","30.07","221","0","0","0.00","0.00"
"01:39:57","71.6","70.1","95","30.07","221","0","0","0.00","0.00"
"01:44:58","71.6","70.1","95","30.08","221","0","0","0.00","0.00"
"01:49:57","71.5","70","95","30.08","221","0","0","0.00","0.00"
"01:54:58","71.5","70","95","30.08","221","0","0","0.00","0.00"
"01:59:56","71.5","70","95","30.08","221","0","0","0.00","0.00"
"02:04:59","71.5","70","95","30.07","221","0","0","0.00","0.00"
"02:09:58","71.4","69.9","95","30.07","221","0","0","0.00","0.00"
"02:14:57","71.3","69.8","95","30.07","221","0","0","0.00","0.00"
"02:19:59","71.3","69.8","95","30.07","221","0","0","0.00","0.00"
"02:24:57","71.2","69.7","95","30.07","221","0","0","0.00","0.00"
"02:29:56","71.1","69.8","95.5","30.07","221","0","0","0.00","0.00"
"02:34:56","71.1","69.9","96","30.07","221","0","0","0.00","0.00"
"02:39:56","71.1","69.9","96","30.07","221","0","0","0.00","0.00"
"02:44:56","71.1","69.9","96","30.07","221","0","0","0.00","0.00"
"02:49:57","71.1","69.9","96","30.07","221","0","0","0.00","0.00"
"02:54:58","71.1","69.9","96","30.07","221","0","0","0.00","0.00"
"02:59:56","71.1","69.9","96","30.07","221","0","0","0.00","0.00"
"03:04:58","71.1","69.9","96","30.07","221","0","0","0.00","0.00"
"03:09:57","71","69.8","96","30.07","221","0","0","0.00","0.00"
"03:14:52","71","69.8","96","30.07","221","0","0","0.00","0.00"
"03:19:58","71","69.8","96","30.07","221","0","0","0.00","0.00"
"03:24:59","71","69.8","96","30.07","221","0","0","0.00","0.00"
"03:29:59","71","69.8","96","30.07","221","0","0","0.00","0.00"
"03:34:56","70.9","69.7","96","30.07","221","0.1","2","0.00","0.00"
"03:39:58","71","69.8","96","30.07","221","0.7","2.3","0.00","0.00"
"03:44:57","71","69.8","96","30.07","221","0","0","0.00","0.00"
"03:49:59","70.9","69.7","96","30.06","221","0","0","0.00","0.00"
"03:54:59","70.9","69.7","96","30.06","221","0.1","1.2","0.00","0.00"
"03:59:57","70.8","69.6","96","30.07","221","0.1","1.2","0.00","0.00"
"04:04:56","70.7","69.5","96","30.07","221","0","0","0.00","0.00"
"04:09:59","70.6","69.4","96","30.07","221","0","0","0.00","0.00"
"04:14:57","70.6","69.4","96","30.07","221","0","0","0.00","0.00"
"04:19:56","70.6","69.4","96","30.07","221","0","0","0.00","0.00"
"04:24:58","70.5","69.3","96","30.07","221","0","0","0.00","0.00"
"04:29:59","70.4","69.2","96","30.07","221","0","0","0.00","0.00"
"04:34:55","70.4","69.2","96","30.06","221","0.2","2","0.00","0.00"
"04:39:58","70.3","69.1","96","30.06","221","0.4","2.3","0.00","0.00"
"04:44:57","70.3","69.1","96","30.06","221","0","0","0.00","0.00"
"04:49:57","70.3","69.1","96","30.06","221","0","0","0.00","0.00"
"04:54:57","70.3","69.1","96.1","30.06","221","0.5","2.3","0.00","0.00"
"04:59:56","70.3","69.4","97","30.07","221","0.4","2.3","0.00","0.00"
"05:04:59","70.3","69.2","96.2","30.07","221","0","0","0.00","0.00"
"05:09:58","70.3","69.2","96.3","30.07","221","0","0","0.00","0.00"
"05:14:58","70.3","69.4","96.9","30.07","221","0","0","0.00","0.00"
"05:19:58","70.3","69.2","96.5","30.07","221","0","0","0.00","0.00"
"05:24:57","70.3","69.2","96.5","30.07","221","0","1","0.00","0.00"
"05:29:59","70.3","69.4","96.8","30.07","221","0","1","0.00","0.00"
"05:34:56","70.3","69.3","96.7","30.07","221","0","1.2","0.00","0.00"
"05:39:56","70.3","69.4","96.9","30.07","221","0.5","2.3","0.00","0.00"
"05:44:56","70.3","69.2","96.2","30.08","221","0.5","2.3","0.00","0.00"
"05:49:59","70.2","69","96","30.08","221","0.3","2.3","0.00","0.00"
"05:54:59","70.2","69","96","30.08","221","0","1.2","0.00","0.00"
"05:59:58","70.2","69","96","30.08","221","0","0","0.00","0.00"
"06:04:56","70.1","68.9","96.1","30.08","221","0","0","0.00","0.00"
"06:09:56","70.1","69.2","96.8","30.08","221","0","0","0.00","0.00"
"06:14:59","70.2","69.3","97","30.09","221","0.1","1.2","0.00","0.00"
"06:19:59","70.2","69.3","97","30.09","221","0","0","0.00","0.00"
"06:24:58","70.2","69.3","97","30.09","221","0","0","0.00","0.00"
"06:29:58","70.2","69.3","97","30.09","221","0","0","0.00","0.00"
"06:34:59","70.2","69.3","97","30.09","221","0","0","0.00","0.00"
"06:39:56","70.2","69.3","97","30.09","221","0","1","0.00","0.00"
"06:44:56","70.2","69.3","97","30.09","221","0.5","2.3","0.00","0.00"
"06:49:57","70.1","69.2","97","30.09","221","0.5","2.3","0.00","0.00"
"06:54:57","70.1","69.2","97","30.09","221","0","1.2","0.00","0.00"
"06:59:56","70.1","69.2","97","30.09","221","0","0","0.00","0.00"
"07:04:58","70.1","69.2","97","30.09","221","0","0","0.00","0.00"
"07:09:57","70.1","69.2","97","30.09","221","0","0","0.00","0.00"
"07:14:59","70.1","69.2","97","30.09","221","0","1","0.00","0.00"
"07:19:58","70.1","69.2","97","30.09","221","0.1","1.2","0.00","0.00"
"07:23:57","70.3","69.4","97","30.09","221","0","0","0.00","0.00"
"07:36:58","70.6","69.7","97","30.09","230","0","0","0.00","0.00"
"07:44:57","70.9","70","97","30.10","230","0","0","0.00","0.00"
"07:49:59","71.2","70.3","97","30.10","230","0","0","0.00","0.00"
"07:54:58","71.6","70.7","97","30.10","230","0.2","1.2","0.00","0.00"
"07:59:58","71.9","70.9","96.4","30.10","230","0.7","2.3","0.00","0.00"
"08:04:57","72.2","71","96","30.10","230","0.1","1.2","0.00","0.00"
"08:09:55","72.5","71.2","95.8","30.10","230","0","1","0.00","0.00"
"08:14:58","72.7","71.2","95","30.11","235","0.2","1.2","0.00","0.00"
"08:19:59","72.9","71.4","95","30.11","212","0","1.2","0.01","0.01"
"08:24:56","73.3","71.7","94.7","30.11","212","0.1","1.2","0.01","0.01"
"08:29:58","73.7","72","94.2","30.11","212","0.1","1.2","0.01","0.01"
"08:34:58","74.2","72.4","93.9","30.11","212","0","0","0.01","0.01"
"08:39:58","74.6","72.3","92.6","30.11","219","0.3","2.3","0.01","0.01"
"08:44:57","75.1","72.3","91","30.11","242","0.9","3.5","0.01","0.01"
"08:49:58","75.5","72.2","89.5","30.11","274","1.4","4","0.01","0.01"
"08:54:57","75.9","72.3","88.5","30.11","321","1.8","4","0.01","0.01"
"08:59:57","76.1","72.3","88","30.12","346","1.3","3.5","0.01","0.01"
"09:04:58","76.4","72.8","88.5","30.12","346","0.1","2.3","0.01","0.01"
"09:09:56","76.9","73.1","88.1","30.12","346","0.3","2.3","0.01","0.01"
"09:14:58","77.4","73.1","86.6","30.12","346","0.8","3.5","0.01","0.01"
"09:19:58","77.7","72.7","84.8","30.12","346","1.2","3.5","0.01","0.01"
"09:24:59","77.9","72.8","84.3","30.12","346","1","3.5","0.01","0.00"
"09:29:58","78.1","72.6","83.1","30.12","346","1.1","3.5","0.01","0.00"
"09:34:58","78.3","72.7","82.9","30.12","346","0.8","2.3","0.01","0.00"
"09:39:56","78.5","72.7","82.6","30.12","346","1.6","4","0.01","0.00"
"09:44:56","78.7","73.1","83","30.12","346","0.4","2.3","0.01","0.00"
"09:49:59","79.1","73.4","82.9","30.12","346","0.6","4","0.01","0.00"
"09:54:59","79.6","72.8","79.7","30.12","345","1.3","3.5","0.01","0.00"
"09:59:57","80.1","72.9","78.6","30.13","344","0.4","2.3","0.01","0.00"
"10:04:57","80.6","73.3","78.6","30.13","344","0.2","2.3","0.01","0.00"
"10:09:59","81.1","73.7","78.2","30.13","344","0.6","2.3","0.01","0.00"
"10:14:59","81.6","73.7","77.1","30.13","344","0.1","1.2","0.01","0.00"
"10:19:58","81.8","73.3","75.4","30.13","344","0","0","0.01","0.00"
"10:24:57","81.9","72.7","73.7","30.13","344","0.4","2.3","0.01","0.00"
"10:29:57","82.1","73.2","74.5","30.13","344","0.8","3","0.01","0.00"
"10:34:58","82.3","73.3","74.3","30.13","344","0.1","1.2","0.01","0.00"
"10:39:55","82.4","73.5","74.6","30.13","344","0.6","3.5","0.01","0.00"
"10:44:57","82.4","73.7","75","30.13","344","0.3","1.2","0.01","0.00"
"10:49:57","82.4","73.6","74.8","30.13","344","0.3","2.3","0.01","0.00"
"10:54:59","82.4","73.3","74","30.13","343","1.1","4","0.01","0.00"
"10:59:57","82.4","72.1","71.2","30.14","343","1.6","3.5","0.01","0.00"
"11:04:56","82.5","72.1","71","30.14","352","1.6","5","0.01","0.00"
"11:09:59","82.6","72.4","71.2","30.14","339","0.9","3","0.01","0.00"
"11:14:56","82.7","72.2","70.8","30.14","269","1.5","4","0.01","0.00"
"11:19:59","82.8","72.4","71.1","30.14","344","1.2","4","0.01","0.00"
"11:24:57","82.9","72.7","71.4","30.14","298","1.2","3.5","0.01","0.00"
"11:29:59","83.2","73.6","72.8","30.14","280","0.8","3.5","0.01","0.00"
"11:34:56","83.5","73.5","72","30.14","313","1.4","4","0.01","0.00"
"11:39:58","83.9","73.7","71.6","30.14","339","1","7","0.01","0.00"
"11:44:59","84.5","73.8","70.3","30.14","334","2.6","7","0.01","0.00"
"11:49:59","85.1","73.8","69","30.14","284","2.4","7","0.01","0.00"
"11:54:56","85.6","74.5","69.7","30.14","323","3.2","7","0.01","0.00"
"11:59:59","86.2","75.2","69.7","30.14","270","2.5","10","0.01","0.00"
"12:04:57","86.9","74.6","67","30.13","332","4.4","15","0.01","0.00"
"12:09:59","87.2","74.3","65.5","30.13","347","4.7","11.5","0.01","0.00"
"12:14:58","87.4","74.5","65.7","30.13","339","5.7","12","0.01","0.00"
"12:19:58","87.4","74.7","66.1","30.13","322","3.2","10","0.01","0.00"
"12:24:57","87.5","74.7","66","30.13","343","5","13","0.01","0.00"
"12:29:58","87.5","74.6","65.8","30.13","75","3.2","12.7","0.01","0.00"
"12:34:58","87.9","74.8","65.5","30.12","321","3.7","10.4","0.01","0.00"
"12:39:58","88","74.1","63.6","30.12","292","4.2","10.4","0.01","0.00"
"12:44:56","87.8","74.3","64.4","30.12","285","2.1","6","0.01","0.00"
"12:49:55","87.8","74.1","64","30.12","319","4","11.5","0.01","0.00"
"12:54:56","87.7","73.5","63.1","30.12","285","3.7","8.1","0.01","0.00"
"12:59:57","87.3","73.6","64","30.12","290","4","10.4","0.01","0.00"
"13:04:56","86.9","73.8","65.3","30.12","321","3.7","10.4","0.01","0.00"
"13:09:57","86.8","73.9","65.7","30.12","342","3.5","8.1","0.01","0.00"
"13:14:56","86.8","73.6","64.9","30.12","321","3.4","10.4","0.01","0.00"
"13:19:57","86.9","73.1","63.7","30.12","306","3.7","8","0.01","0.00"
"13:24:56","86.6","72.7","63.5","30.12","302","3.3","10","0.01","0.00"
"13:29:58","86.3","73","64.7","30.12","263","2.7","6","0.01","0.00"
"13:34:56","86.5","73.4","65","30.12","344","1.7","6","0.01","0.00"
"13:39:57","86.6","73.3","64.5","30.12","343","3.4","9","0.01","0.00"
"13:44:56","86.2","72.7","64.3","30.13","358","4","10.4","0.01","0.00"
"13:49:57","85.8","72.9","65.4","30.13","335","2.4","6","0.01","0.00"
"13:54:58","85.7","72.8","65.5","30.13","329","3.2","6","0.01","0.00"
"13:59:59","85.6","73.1","66.4","30.13","345","2.4","10","0.01","0.00"
"14:04:57","85.6","72.8","65.7","30.12","326","3.1","10.4","0.01","0.00"
"14:09:59","85.5","72.5","65.3","30.12","281","2.5","6","0.01","0.00"
"14:14:58","85.7","72.8","65.6","30.12","334","3.7","8.1","0.01","0.00"
"14:19:57","85.9","72.9","65.4","30.12","323","3.1","10","0.01","0.00"
"14:24:58","86.3","73","64.7","30.12","241","1.8","10.4","0.01","0.00"
"14:29:58","86.7","73.4","64.7","30.12","270","1.8","4","0.01","0.00"
"14:34:58","87.1","73.8","64.9","30.12","277","2.2","6","0.01","0.00"
"14:39:59","87.5","73.5","63.2","30.12","307","2.7","6","0.01","0.00"
"14:44:59","87.9","73.4","62.3","30.12","302","2.3","7","0.01","0.00"
"14:49:59","87.7","73.2","62.4","30.11","206","3.2","6","0.01","0.00"
"14:54:59","87.5","73.2","62.8","30.11","282","2","5","0.01","0.00"
"14:59:59","87.9","73.8","63.2","30.11","212","2.3","7","0.01","0.00"
"15:04:56","88.3","73.2","61.3","30.10","338","2.1","7","0.01","0.00"
"15:09:58","88.3","72.8","60.2","30.10","316","1.9","6","0.01","0.00"
"15:14:56","88.5","73.4","61.2","30.10","274","1.6","5","0.01","0.00"
"15:19:57","88.8","73","59.7","30.10","317","2.6","8.1","0.01","0.00"
"15:24:59","88.7","73.1","60.1","30.10","289","3.3","10.4","0.01","0.00"
"15:29:57","88.8","73.8","61.5","30.10","271","1.6","9","0.01","0.00"
"15:34:59","89","73.8","60.9","30.09","336","2.5","9.2","0.01","0.00"
"15:39:58","89.1","73.9","60.9","30.09","331","1.2","6","0.01","0.00"
"15:44:59","89.3","74","60.6","30.09","345","3.2","9.2","0.01","0.00"
"15:49:57","89.2","73.3","59.5","30.09","324","3.7","9.2","0.01","0.00"
"15:54:56","88.6","73.4","61","30.09","336","1.8","5","0.01","0.00"
"15:59:55","88.5","73.8","61.9","30.09","290","2.4","11","0.01","0.00"
"16:04:57","89.1","74.1","61.5","30.08","352","3.1","7","0.01","0.00"
"16:09:59","89.4","73.5","59.5","30.08","339","2.1","6","0.01","0.00"
"16:14:56","89.5","72.7","57.7","30.08","309","2.4","5","0.01","0.00"
"16:19:59","89.4","72.7","58","30.07","296","2.1","6","0.01","0.00"
"16:24:58","89.5","72.5","57.5","30.07","324","2.5","6","0.01","0.00"
"16:29:58","89.8","73.2","58.4","30.07","322","1.7","6","0.01","0.00"
"16:34:56","89.9","73.7","59","30.07","297","1.9","5","0.01","0.00"
"16:39:56","89.9","73.6","58.9","30.07","246","1.4","4","0.01","0.00"
"16:44:56","89.7","73.1","58.2","30.07","230","1.3","3.5","0.01","0.00"
"16:49:58","89.6","72.3","57","30.07","299","0.8","3","0.01","0.00"
"16:54:56","89.6","72.3","57","30.07","300","1.1","4","0.01","0.00"
"16:59:57","89.7","72.5","57.2","30.07","325","1.7","5","0.01","0.00"
"17:04:56","90","72.7","57","30.07","318","2.6","6","0.01","0.00"
"17:09:57","89.7","72.5","57.1","30.07","319","2.1","6","0.01","0.00"
"17:14:56","89.9","73.1","58.1","30.07","333","1.4","5","0.01","0.00"
"17:19:56","90.3","73.4","57.8","30.07","325","2.4","4","0.01","0.00"
"17:24:56","90.5","73","56.6","30.07","235","0.7","3.5","0.01","0.00"
"17:29:59","90.7","74.1","58.3","30.07","349","1.7","5","0.01","0.00"
"17:34:59","90.6","73.8","58","30.07","331","1.4","6","0.01","0.00"
"17:39:56","90.2","73.7","58.6","30.07","336","1.9","6","0.01","0.00"
"17:44:59","90.1","73.6","58.6","30.07","338","1.4","5.8","0.01","0.00"
"17:49:57","89.8","72.8","57.6","30.06","29","0.6","3.5","0.01","0.00"
"17:54:57","89.3","73.1","59","30.06","345","1.6","5","0.01","0.00"
"17:59:58","89.2","73.2","59.3","30.06","332","1.9","5","0.01","0.00"
"18:04:58","89.3","73.7","60.2","30.05","330","1.4","5","0.01","0.00"
"18:09:56","89","73.5","60.3","30.05","340","1.9","5","0.01","0.00"
"18:14:59","88.4","73.4","61.3","30.05","334","1.5","4.6","0.01","0.00"
"18:19:59","87.7","73.3","62.4","30.05","337","1.1","5","0.01","0.00"
"18:24:57","87.3","73.2","63","30.05","338","0.6","3.5","0.01","0.00"
"18:29:56","87","72.9","63","30.05","338","0.8","4","0.01","0.00"
"18:34:59","86.8","72.8","63.3","30.04","337","1.5","4","0.01","0.00"
"18:39:59","86.5","72.9","63.8","30.04","336","1.1","3.5","0.01","0.00"
"18:44:56","86.4","73.1","64.7","30.06","335","1.6","4","0.01","0.00"
"18:49:58","86.3","73.2","65.1","30.06","332","0.7","3.5","0.01","0.00"
"18:54:55","86.3","73.1","65","30.06","331","1.7","4","0.01","0.00"
"18:59:57","86.2","73","65","30.07","331","1.3","4","0.01","0.00"
"19:04:59","86.1","73","65","30.07","331","1.2","3.5","0.01","0.00"
"19:09:57","86","73","65.1","30.07","331","1.1","3.5","0.01","0.00"
"19:14:58","85.8","73.1","66","30.07","331","0.1","3.5","0.01","0.00"
"19:19:57","85.7","73.3","66.5","30.07","331","0","0","0.01","0.00"
"19:24:57","85.5","73.2","66.8","30.07","331","0","0","0.01","0.00"
"19:29:57","85.3","73.1","67","30.07","331","0","0","0.01","0.00"
"19:34:57","85.1","73","67","30.07","331","0","0","0.01","0.00"
"19:39:59","85","73.3","68","30.07","331","0","0","0.01","0.00"
"19:44:57","84.8","73.2","68.2","30.08","331","0","0","0.01","0.00"
"19:49:56","84.6","73","68.1","30.08","329","0","0","0.01","0.00"
"19:54:58","84.5","73.2","68.9","30.08","92","0","0","0.01","0.00"
"19:59:58","84.4","73.1","69","30.09","92","0","0","0.01","0.00"
"20:04:57","84.3","73.1","69.4","30.09","92","0","0","0.01","0.00"
"20:09:56","84","73.4","70.4","30.09","92","0","0","0.01","0.00"
"20:14:59","83.8","73.6","71.7","30.10","92","0","0","0.01","0.00"
"20:19:56","83.4","73.4","72.1","30.10","92","0","0","0.01","0.00"
"20:24:59","82.9","73.5","73.3","30.10","92","0","0","0.01","0.00"
"20:29:56","82.6","73.5","74.1","30.10","92","0","0","0.01","0.00"
"20:34:59","82.3","73.4","74.4","30.10","92","0","0","0.01","0.00"
"20:39:56","82.1","73.3","74.8","30.10","92","0","0","0.01","0.00"
"20:44:56","82.1","73.4","75","30.11","92","0","0","0.01","0.00"
"20:49:56","82.1","73.6","75.5","30.11","92","0","0","0.01","0.00"
"20:54:58","82.1","73.8","76","30.11","91","0","0","0.01","0.00"
"20:59:56","82","73.7","76","30.11","91","0","0","0.01","0.00"
"21:04:56","82","73.7","76","30.11","71","0","0","0.01","0.00"
"21:09:59","81.9","73.6","76","30.11","71","0","0","0.01","0.00"
"21:14:58","81.8","73.9","77","30.11","71","0","0","0.01","0.00"
"21:19:58","81.7","73.8","77","30.11","71","0","0","0.01","0.00"
"21:24:59","81.6","73.7","77","30.11","71","0","0","0.01","0.00"
"21:29:59","81.4","73.6","77.2","30.12","71","0","0","0.01","0.00"
"21:34:59","81.4","73.7","77.5","30.12","71","0","0","0.01","0.00"
"21:39:56","81.3","73.8","78","30.12","71","0","0","0.01","0.00"
"21:44:58","81.2","73.7","78","30.13","71","0","0","0.01","0.00"
"21:49:56","81.2","73.7","78.2","30.13","71","0","0","0.01","0.00"
"21:54:56","81.1","73.7","78.3","30.13","71","0","0","0.01","0.00"
"21:59:56","80.9","73.6","78.5","30.13","71","0","0","0.01","0.00"
"22:04:55","80.8","73.7","79","30.13","71","0","0","0.01","0.00"
"22:09:58","80.6","73.7","79.6","30.13","71","0","0","0.01","0.00"
"22:14:58","80.4","73.8","80.3","30.13","71","0","0","0.01","0.00"
"22:19:58","80.2","73.8","81","30.13","71","0","0","0.01","0.00"
"22:24:59","80.1","73.7","81","30.13","71","0","0","0.01","0.00"
"22:29:58","80","73.8","81.5","30.13","71","0","0","0.01","0.00"
"22:34:56","79.7","73.7","82","30.13","71","0","0","0.01","0.00"
"22:39:56","79.6","73.3","81.1","30.13","71","0","0","0.01","0.00"
"22:44:58","79.5","73.2","81","30.13","71","0","0","0.01","0.00"
"22:49:58","79.5","73.2","80.9","30.12","337","0.4","7","0.01","0.00"
"22:54:59","79.6","72.9","80","30.12","334","1.6","7","0.01","0.00"
"22:59:56","79.5","72.5","79.1","30.13","329","1.4","4.6","0.01","0.00"
"23:04:58","79.5","72.4","79","30.13","340","1.6","6","0.01","0.00"
"23:09:56","79.4","71.8","77.7","30.13","333","2.7","8","0.01","0.00"
"23:14:57","79.3","71.2","76.4","30.13","338","2.7","8.1","0.01","0.00"
"23:19:56","79.2","70.7","75.3","30.13","344","2.1","7","0.01","0.00"
"23:24:55","79.1","70.5","75","30.13","332","1.3","7","0.01","0.00"
"23:29:57","79","70.4","75","30.14","331","0.4","3","0.01","0.00"
"23:34:58","78.8","70.3","75.2","30.14","338","1.1","6","0.01","0.00"
"23:39:57","78.7","70.1","75","30.14","336","0.7","3.5","0.01","0.00"
"23:44:57","78.5","70.1","75.4","30.14","349","1.7","10.4","0.01","0.00"
"23:49:56","78.4","70.2","76","30.14","336","1.7","6","0.01","0.00"
"23:54:59","78.2","70","76.1","30.14","3","1","5","0.01","0.00"
"23:59:57","78","70.1","76.8","30.14","350","1.5","11.5","0.01","0.00"
